Regional Weather Roundup
Issued by NWS

Home | Current Version | Previous Version | Graphics & Text | Print | Product List | Glossary Off
Versions: 1 2 3 4 5 6 7 8 9 10 11 12 13 14 15 16 17 18 19 20 21 22 23 24 25 26 27 28 29 30 31 32 33 34 35 36 37 38 39 40 41 42 43 44 45 46 47 48 49 50

000
ASUS43 KDMX 230501
RWRIA

WEATHER ROUNDUP FOR IOWA
NATIONAL WEATHER SERVICE DES MOINES IA
1100 PM CST WED NOV 22 2017

NOTE: "FAIR" INDICATES FEW OR NO CLOUDS BELOW 12,000 FEET WITH NO
SIGNIFICANT WEATHER AND/OR OBSTRUCTIONS TO VISIBILITY.

* - THESE STATIONS ARE NOT NWS STATIONS...THUS NOT UNDER NWS
QUALITY CONTROL.  THEY ALSO DO NOT REPORT WEATHER SUCH
AS PRECIPITATION OR FOG.

IAZ001>003-012>014-020>022-031>034-043>046-230600-
   NORTHWEST IOWA

CITY           SKY/WX    TMP DP  RH WIND       PRES   REMARKS
CARROLL *      CLEAR     36  19  51 SW18G26   29.97F WCI  25
CHEROKEE *     CLEAR     35  20  54 SW8       29.96F WCI  28
DENISON *      CLEAR     34  19  55 S6        30.01F WCI  29
LE MARS *      CLEAR     32  21  64 S7        29.96S WCI  26
ORANGE CITY *  CLEAR     34  23  64 SW7       29.94S WCI  28
SHELDON *      CLEAR     32  19  59 S7        29.92S WCI  26
SIOUX CITY     CLEAR     29  20  69 SE8       29.97F WCI  21
SPENCER        CLOUDY    27  17  66 S6        29.95F WCI  20
STORM LAKE *   CLEAR     34  19  55 SW17G23   29.95F WCI  23
$$

IAZ055>058-069>071-079>083-090>094-230600-
   SOUTHWEST IOWA

CITY           SKY/WX    TMP DP  RH WIND       PRES   REMARKS
ATLANTIC *     CLEAR     30  21  69 S6        30.03F WCI  24
CLARINDA *       N/A     30  19  64 S7        30.10F WCI  23
COUNCIL BLFS * CLEAR     34  21  60 S9        30.02F WCI  26
CRESTON *      CLEAR     30  19  64 S10       30.07F WCI  21
HARLAN  *      CLEAR     32  19  59 S10       30.05F WCI  24
LAMONI         CLEAR     31  17  56 S10       30.09F WCI  22
RED OAK *      CLEAR     32  19  59 S8        30.06F WCI  25
SHENANDOAH *   CLEAR     32  19  59 SE6       30.08S WCI  26
$$

IAZ047>049-059>061-072>074-084-230600-
   CENTRAL IOWA

CITY           SKY/WX    TMP DP  RH WIND       PRES   REMARKS
AMES           CLOUDY    35  19  52 S12       30.03F WCI  27
ANKENY *       CLOUDY    36  16  44 S12       30.06F WCI  27
BOONE *        PTCLDY    34  18  51 SW15G22   30.00F WCI  24
CHARITON *     PTCLDY    32  16  51 S10       30.08F WCI  24
DES MOINES     MOCLDY    35  16  45 S12G21    30.05F WCI  27
GRINNELL*      CLOUDY    31  17  56 S10       30.08F WCI  23
KNOXVILLE *    CLOUDY    36  14  41 SW9       30.07F WCI  29
MARSHALLTOWN   CLOUDY    34  16  47 S17       30.04F WCI  23
NEWTON *       CLOUDY    32  18  55 S13       30.06F WCI  22
PELLA *        PTCLDY    33  16  48 S8        30.11F WCI  27
PERRY *          N/A     31  17  56 S10       30.02F WCI  22
$$

IAZ004>006-015-016-023>025-035-036-230600-
   NORTH CENTRAL IOWA

CITY           SKY/WX    TMP DP  RH WIND       PRES   REMARKS
ALGONA *       CLEAR     28  19  69 S9        29.97S WCI  20
CLARION *      CLEAR     32  18  55 S9        30.00S WCI  24
ESTHERVILLE    CLOUDY    29  18  63 SW9       29.94F WCI  20
FORT DODGE *   CLEAR     32  19  58 SW10      29.99F WCI  24
MASON CITY     PTCLDY    29  17  61 S7        30.01F WCI  22
FOREST CITY *    N/A     30  21  69 S8        29.99F WCI  23
WEBSTER CITY * CLEAR     32  18  55 S10       29.98S WCI  24
IOWA FALLS *   CLOUDY    34  19  54 S10       30.03F WCI  26
$$

IAZ007>011-017>019-026>030-037>042-050>054-066-230600-
   NORTHEAST IOWA

CITY           SKY/WX    TMP DP  RH WIND       PRES   REMARKS
CEDAR RAPIDS   CLOUDY    30  17  58 S7        30.11F WCI  23
CHARLES CITY * CLOUDY    34  16  47 S15       30.02F WCI  24
CLINTON *      CLOUDY    33  19  56 S7        30.17S WCI  27
DECORAH *      CLOUDY    32  16  51 S9        30.03F WCI  24
DUBUQUE        CLOUDY    31  18  58 S13       30.11F WCI  21
MONTICELLO *   CLOUDY    32  19  59 S8        30.12F WCI  25
OELWEIN *      CLOUDY    32  19  59 S13       30.06F WCI  22
WATERLOO       CLOUDY    33  16  49 S10       30.05F WCI  25
$$

IAZ064-065-067-068-078-230600-
   EAST CENTRAL IOWA

CITY           SKY/WX    TMP DP  RH WIND       PRES   REMARKS
DAVENPORT      CLOUDY    33  18  53 S9        30.17F WCI  25
IOWA CITY      CLOUDY    34  20  56 S7        30.15F WCI  28
MT. PLEASANT * MOCLDY    31  19  61 S8        30.16S WCI  24
MUSCATINE *    CLOUDY    32  21  64 S6        30.16F WCI  26
QUAD CITIES    CLOUDY    34  18  52 S6        30.16S WCI  29
$$

IAZ062-063-075>077-085>089-095>099-230600-
   SOUTHEAST IOWA

CITY           SKY/WX    TMP DP  RH WIND       PRES   REMARKS
BURLINGTON     PTCLDY    32  20  61 SW9       30.17R WCI  24
FAIRFIELD *    PTCLDY    30  16  55 S7        30.13F WCI  23
FORT MADISON * PTCLDY    30  21  69 S6        30.18R WCI  24
KEOKUK *       PTCLDY    32  19  59 S9        30.17R WCI  24
OSKALOOSA *      N/A     30  18  62 S10       30.11F WCI  21
OTTUMWA        PTCLDY    30  16  56 S9        30.12F WCI  22
WASHINGTON *   CLOUDY    34  19  55 S8        30.15F WCI  27
$$

ABBREVIATIONS USED IN REMARKS
   TC - TEMPERATURES IN CELSIUS
  WCI - WIND CHILL INDEX
   HX - HEAT INDEX
  VSB - VISIBILITY
$$




USA.gov is the U.S. government's official web portal to all federal, state and local government web resources and services.